Hourly Data Report for October 07, 2013

All times are specified in Local Standard Time (LST). Add 1 hour to adjust for Daylight Saving Time where and when it is observed.

KUGAARUK CLIMATE
NUNAVUT

68°32'15.060" N
89°47'47.020" W
15.80 m
2303094
71407
NBB

Download Data

Hourly Data (October 2013)
Hourly Data Report for October 7, 2013
Temp Definition
°C
Dew Point Temp Definition
°C
Rel Hum Definition
%
Wind Dir Definition
10's deg

Wind Spd Definition
km/h
Visibility Definition
km
Stn Press Definition
kPa
Hmdx Definition


Wind Chill Definition


Weather Definition


TIME
00:00 -3.9 -5.5 89 13 22   101.58   -10 LegendNANA
01:00 -3.9 -5.6 88 13 22   101.55   -10 LegendNANA
02:00 -4.2 -6.0 87 14 22   101.55   -11 LegendNANA
03:00 -4.4 -6.3 87 14 20   101.54   -11 LegendNANA
04:00 -4.4 -6.4 86 13 20   101.56   -11 LegendNANA
05:00 -4.9 -6.6 88 13 19   101.56   -11 LegendNANA
06:00 -5.5 -6.8 91 6 11   101.57   -10 LegendNANA
07:00 -4.0 -6.0 86 9 9   101.58   -8 LegendNANA
08:00 -3.4 -5.7 84 12 15   101.57   -9 LegendNANA
09:00 -3.0 -6.1 79 12 13   101.55   -8 LegendNANA
10:00 -2.7 -6.3 76 11 17   101.55   -8 LegendNANA
11:00 -2.6 -6.6 74 12 17   101.56   -8 LegendNANA
12:00 -3.3 -7.0 76 13 17   101.57   -9 LegendNANA
13:00 -2.7 -7.6 69 13 13   101.57   -7 LegendNANA
14:00 -3.0 -7.8 69 12 15   101.58   -8 LegendNANA
15:00 -3.2 -7.4 73 11 9   101.59   -7 LegendNANA
16:00 -3.2 -7.8 70 9 9   101.60   -7 LegendNANA
17:00 -3.3 -7.8 71 8 15   101.61   -8 LegendNANA
18:00 -3.6 -7.9 72 9 13   101.63   -8 LegendNANA
19:00 -3.7 -7.8 73 8 13   101.62   -9 LegendNANA
20:00 -4.3 -6.0 88 6 13   101.64   -9 LegendNANA
21:00 -4.0 -6.2 85 5 9   101.62   -8 LegendNANA
22:00 -4.4 -6.1 88 5 13   101.63   -9 LegendNANA
23:00 -4.2 -5.7 89 5 17   101.64   -10 LegendNANA

Notes on Data Quality.

Legend

  • E = Estimated
  • M = Missing
  • NA = Not Available
  • ‡ = Partner data that is not subject to review by the National Climate Archives
Date modified: